Wind_Speed
16 15 14 14 14 14 14 13 13 12 10 8 5 4 3 2 1 2 3 4 4 5 6 6 5 3 2 2 1 1 2 2 2 1 1 1 2 2 2 2 1 1 2 3 4 5 6 8 9 9 10 11 11 12 13 13 13 14 15 14 15 16 16 16 17 18 20 20 21 22 23 24 24 25 27 28 28 29 29 29 30 31 34 36 37 39 40 41
17 17 16 16 15 15 15 14 14 14 12 11 8 5 4 3 2 3 4 5 6 6 6 6 6 5 3 2 2 1 1 1 1 1 1 2 2 3 3 3 2 2 3 4 5 6 7 8 9 9 10 11 11 12 13 13 13 14 15 14 15 16 17 17 18 19 20 21 22 23 24 25 26 27 28 29 30 30 29 29 31 34 35 36 38 39 41 42
19 18 18 17 17 16 15 15 15 15 15 14 11 8 6 5 4 5 6 6 7 7 6 7 7 6 5 3 2 2 2 2 2 2 3 3 4 4 4 3 3 4 5 6 6 7 8 8 9 10 11 12 12 12 13 13 14 14 15 15 15 16 17 18 19 20 21 22 23 24 25 26 28 28 29 30 31 32 31 31 32 34 35 36 38 39 41 41
21 20 20 19 18 18 17 16 16 16 16 16 14 11 8 7 6 6 7 7 8 8 8 8 8 8 7 5 3 3 3 3 4 4 5 5 5 4 4 5 5 6 7 8 8 9 10 10 11 12 12 13 13 14 14 15 15 15 16 16 17 17 17 19 20 21 22 24 25 25 27 28 29 30 31 32 33 33 33 33 33 34 35 37 38 38 39 41
21 21 21 20 20 19 18 18 17 16 16 16 15 14 12 9 8 7 8 9 9 10 10 9 9 9 8 7 5 4 4 4 5 6 6 6 6 5 6 6 7 8 9 9 10 11 11 12 12 13 14 14 15 15 16 16 17 17 17 18 18 18 19 20 21 23 24 25 26 27 28 29 30 31 33 33 34 34 34 34 34 35 36 38 39 39 39 41
22 22 22 22 22 21 20 20 19 17 17 17 16 16 15 13 11 8 9 10 10 11 11 11 10 10 9 9 7 6 5 5 6 6 7 7 7 7 7 8 9 10 11 11 12 12 13 13 13 14 15 15 16 16 17 18 18 18 19 19 20 20 21 22 23 24 25 26 27 28 29 30 31 32 33 34 34 35 34 34 35 37 38 39 40 41 41 42
23 23 24 24 23 23 22 22 21 19 18 18 17 16 16 16 14 11 10 11 12 11 12 13 11 10 10 10 9 7 6 6 7 7 7 8 7 8 9 9 10 11 12 12 13 13 14 14 15 15 16 17 17 18 19 19 20 20 20 21 21 22 23 24 24 25 26 27 28 29 30 31 32 33 35 36 35 35 35 35 36 38 39 40 41 42 43 44
24 24 25 25 25 24 24 23 23 22 20 20 18 17 17 17 16 13 11 12 13 12 12 13 13 12 11 11 9 9 8 7 8 8 8 9 9 9 10 10 11 12 12 13 14 14 15 15 16 16 17 18 18 19 20 20 21 21 21 22 23 23 24 25 25 26 27 28 29 30 31 32 33 35 36 38 37 36 35 36 37 39 40 41 42 44 45 47
23 24 25 26 25 25 24 24 24 23 22 21 20 17 16 17 17 15 13 13 14 13 13 14 14 13 12 11 10 9 9 8 8 9 9 10 10 11 11 11 12 12 13 13 14 15 16 16 17 18 18 19 20 20 21 21 21 21 22 23 23 24 25 25 26 27 28 30 31 31 33 34 35 36 37 39 39 37 36 36 38 40 41 43 44 45 47 48
22 23 24 24 25 25 25 25 25 24 24 23 20 17 16 16 16 15 15 14 15 14 13 14 15 14 13 12 11 11 10 10 9 10 10 10 11 11 12 12 13 13 14 14 15 16 17 18 18 19 19 20 20 21 21 21 21 21 22 23 24 24 25 26 28 28 29 31 32 33 34 35 36 37 37 39 40 37 36 37 39 42 43 44 45 47 48 48
22 22 22 22 23 24 24 24 24 25 25 23 21 17 15 16 16 16 15 15 16 15 14 14 15 15 15 14 13 12 12 11 11 11 11 11 11 12 13 13 13 13 14 15 16 17 18 19 20 20 20 20 21 20 21 21 22 22 23 23 25 26 27 28 30 30 31 33 34 34 35 35 37 37 37 39 40 38 37 39 42 44 45 46 46 48 49 49
20 20 20 20 21 22 23 24 24 25 25 24 21 18 16 16 16 16 16 16 16 16 15 15 16 17 16 15 14 14 13 12 12 11 11 12 12 13 14 13 13 14 14 15 16 18 19 19 20 20 20 20 20 20 20 21 22 23 24 24 25 27 28 29 31 32 34 35 36 36 36 36 37 37 37 39 40 39 39 42 44 45 46 47 47 48 49 49
17 17 17 17 18 20 22 23 23 24 24 23 21 19 17 17 16 17 17 17 17 17 16 16 17 18 18 16 16 15 14 13 13 12 12 12 13 14 14 14 14 14 15 16 17 18 19 19 19 19 19 19 19 20 21 22 23 23 25 26 27 28 28 30 32 34 35 37 38 38 38 37 38 39 38 39 40 40 42 45 46 47 47 47 48 49 49 50
15 15 13 13 15 18 20 22 23 23 23 22 21 19 18 17 17 17 18 18 18 17 17 17 18 18 19 18 17 15 15 15 14 14 13 13 14 14 14 14 14 15 16 17 17 18 18 18 18 18 19 19 20 21 22 23 25 25 26 28 29 30 31 32 34 35 37 38 39 40 39 38 39 40 40 41 41 43 45 48 49 48 48 48 49 49 50 50
14 15 14 13 14 16 18 20 21 21 21 20 20 19 18 18 17 18 18 18 18 17 17 18 18 19 19 19 17 16 15 16 16 15 15 15 15 15 15 15 15 15 16 17 17 17 18 18 18 19 19 20 21 22 23 25 26 27 27 29 31 32 33 34 36 36 38 40 40 41 41 39 40 41 42 42 44 46 47 49 50 49 49 49 49 50 51 51
13 15 14 12 12 13 15 17 18 19 19 19 19 19 18 18 18 18 19 18 18 17 17 18 19 19 20 19 18 17 16 16 17 17 16 16 15 15 15 15 15 16 17 17 18 17 18 18 18 19 21 22 23 24 25 27 29 29 29 30 32 34 35 36 37 38 39 41 42 42 42 40 40 41 43 44 46 48 48 49 50 48 48 49 50 51 51 52
13 14 13 11 11 12 12 13 15 17 18 18 19 19 18 19 19 19 19 19 18 17 18 19 20 20 20 20 19 18 17 17 17 17 17 16 15 15 15 15 16 16 17 17 18 18 18 19 20 21 22 23 25 27 28 29 31 33 33 34 35 36 38 39 40 40 41 43 43 43 43 41 41 42 45 47 49 50 50 50 50 48 49 49 50 51 51 52
12 13 13 13 12 12 12 13 14 16 17 18 18 18 18 19 19 19 20 20 19 18 18 19 20 20 20 20 20 19 18 18 18 18 17 17 16 16 16 16 16 17 18 18 19 20 20 21 22 24 25 25 27 29 30 32 33 34 36 36 37 38 39 41 42 43 44 44 44 45 44 43 43 44 47 48 50 51 51 51 50 49 49 50 51 51 51 52
6 7 10 11 12 12 12 13 14 15 16 17 18 18 18 19 19 20 20 20 20 19 18 19 20 20 20 20 20 19 19 18 18 18 18 17 17 17 17 18 18 18 19 19 20 21 23 23 24 26 28 29 29 31 32 34 35 36 37 38 39 40 41 43 44 44 45 46 45 46 46 45 45 47 49 49 49 50 50 50 49 49 50 50 51 51 51 51
2 3 5 7 9 10 10 12 13 14 15 16 17 18 18 19 19 20 20 20 20 19 18 19 20 21 21 21 21 20 20 19 19 19 19 19 19 19 19 19 19 19 21 22 22 23 24 25 26 29 31 33 33 34 35 36 37 38 39 40 41 42 43 44 46 45 45 46 46 46 47 47 48 50 50 49 49 49 49 48 48 48 49 50 51 51 51 51
1 2 2 3 5 6 8 10 12 14 15 16 17 18 18 19 20 20 19 19 20 20 19 19 20 21 21 21 21 21 20 20 20 20 20 20 20 20 20 21 21 21 22 24 25 25 26 27 29 31 33 34 35 36 37 37 39 40 41 42 43 44 45 46 47 47 47 48 47 48 49 49 50 51 49 49 49 49 49 48 48 49 49 50 50 50 50 51
1 0 1 2 4 6 7 8 10 12 14 16 17 17 18 19 20 20 19 19 19 20 20 20 20 21 21 21 21 21 21 20 20 21 21 21 21 21 22 23 23 24 24 26 27 28 29 29 30 33 34 35 36 37 38 39 40 42 43 44 44 46 48 48 48 48 49 49 49 50 51 52 51 51 50 48 48 49 50 49 49 50 50 51 50 50 50 50
3 4 5 6 7 9 9 9 10 11 12 14 16 17 18 20 21 21 21 20 20 21 21 21 21 22 22 22 22 22 21 21 20 21 22 22 22 23 24 25 25 26 27 28 29 30 31 31 33 35 36 37 38 38 40 41 42 44 45 45 46 47 49 49 49 50 50 51 52 53 53 53 51 50 50 50 49 50 51 50 50 51 51 51 50 50 50 48
6 7 8 10 11 12 12 12 13 14 14 15 16 18 20 22 24 24 23 22 21 22 22 22 22 22 23 23 23 22 22 22 22 21 23 23 24 25 26 26 27 28 29 30 32 33 33 34 35 37 39 40 40 40 42 43 43 45 46 46 47 48 49 50 51 51 51 52 53 54 54 53 52 50 50 51 51 51 50 50 50 51 51 50 49 49 47 44
5 6 8 10 12 13 14 15 16 17 18 19 20 21 22 22 24 26 27 25 22 23 23 23 23 22 23 23 23 23 22 23 23 22 23 25 25 26 27 28 29 31 31 32 34 34 35 36 37 39 40 41 42 43 44 45 45 46 47 48 49 49 50 51 52 53 53 53 53 54 54 54 52 49 49 50 51 52 51 50 50 50 49 48 48 47 45 42
3 4 6 7 9 11 13 15 16 18 20 21 22 23 23 22 22 24 27 27 25 24 24 23 23 23 23 24 24 24 24 24 24 23 24 26 27 28 29 29 31 32 33 34 35 35 36 37 39 41 42 43 44 44 45 46 47 47 47 48 50 50 51 52 52 53 54 54 53 52 53 53 50 46 46 48 51 52 52 51 50 48 48 48 47 45 43 42
6 6 7 8 10 11 13 14 16 18 20 21 22 22 23 22 21 20 21 23 25 25 24 23 23 23 23 24 25 25 25 25 25 25 26 28 29 30 31 31 32 33 34 35 36 37 38 39 41 43 44 44 45 45 46 47 48 48 48 49 50 51 51 52 53 53 54 54 53 51 52 52 49 45 45 48 51 51 50 50 48 47 48 49 47 45 43 43
8 9 10 11 12 13 15 16 17 19 20 21 21 21 20 20 19 18 17 18 20 22 23 24 25 24 24 24 25 25 26 27 26 26 28 29 30 31 32 32 33 34 36 37 38 39 40 42 43 44 45 45 46 46 47 47 48 48 48 49 50 51 52 52 53 53 54 55 53 51 51 50 47 45 44 47 50 49 49 48 47 47 48 49 48 47 46 45
11 12 13 13 14 15 16 18 19 20 20 20 20 20 19 18 18 17 16 15 16 18 19 22 23 24 25 25 25 25 26 27 28 28 29 30 31 32 33 33 35 36 38 39 40 41 42 43 44 44 45 45 46 46 47 48 48 49 49 49 50 51 52 52 53 53 54 54 52 52 52 50 47 45 44 47 48 47 47 48 48 48 48 49 49 49 49 48
13 14 15 15 16 16 17 18 19 20 20 19 20 20 20 19 17 15 14 15 15 16 17 18 20 22 24 24 25 26 26 27 29 29 30 31 32 33 35 36 36 38 39 41 41 42 43 43 43 44 45 45 46 46 47 48 48 49 49 50 50 51 52 52 52 53 53 53 52 52 51 50 47 45 45 46 45 43 44 47 49 49 48 49 50 50 51 50
16 16 17 17 18 18 18 18 18 19 18 18 18 18 18 18 18 17 15 16 16 15 16 17 19 20 22 23 24 25 26 28 29 30 31 32 33 34 35 37 38 39 40 40 41 41 41 42 43 44 44 45 45 46 47 48 48 49 49 50 51 52 52 53 53 53 52 52 52 51 50 48 44 42 42 41 39 40 41 44 46 47 48 49 51 52 52 52
18 18 19 19 19 18 17 17 17 16 15 15 15 16 15 16 17 18 18 19 18 17 17 18 18 20 21 22 23 24 26 27 28 30 31 32 34 35 36 37 39 40 40 40 41 41 41 42 43 43 44 44 45 45 46 47 48 48 48 49 51 51 51 52 52 51 50 50 50 48 47 44 40 40 41 39 38 39 40 42 43 45 47 49 51 52 52 53
20 20 20 20 19 17 16 15 15 14 13 12 13 14 14 13 13 13 15 17 19 19 19 20 20 21 22 23 24 25 26 27 28 30 32 33 34 35 35 36 38 39 40 40 41 42 42 42 43 44 44 44 45 46 47 48 49 49 49 49 50 50 50 51 51 49 47 47 46 45 43 41 39 40 41 40 41 42 42 43 43 45 47 49 50 51 52 52
21 21 20 19 18 16 14 14 13 13 12 11 10 10 10 11 11 12 12 13 15 16 18 18 19 21 23 24 25 25 26 27 29 30 31 32 33 34 35 36 37 38 39 40 41 42 43 43 44 44 44 44 45 47 48 48 49 50 49 49 49 48 48 49 48 47 45 44 44 42 41 40 39 41 42 42 43 44 43 44 46 48 49 49 49 49 50 52
21 21 19 17 15 13 12 11 12 13 11 8 7 7 8 9 10 11 12 13 14 15 16 17 18 19 21 22 24 25 26 27 28 29 30 31 32 34 35 36 36 37 38 40 41 41 42 43 44 44 44 45 46 47 47 48 48 49 48 47 47 45 45 45 44 43 43 43 43 41 41 42 42 44 45 46 46 45 46 47 48 50 49 48 49 50 51 53
20 18 16 14 12 10 9 10 11 12 9 6 5 6 8 9 10 11 12 13 14 15 16 17 18 19 20 21 22 24 26 27 27 29 30 30 31 33 34 35 36 37 38 39 40 41 41 42 43 44 43 44 45 46 46 46 46 47 46 44 43 42 42 42 42 42 43 44 44 43 44 46 47 48 49 50 50 49 49 49 49 48 48 48 50 52 54 55
16 14 13 11 8 7 8 9 10 10 8 6 6 7 8 10 12 14 14 15 16 16 17 17 18 19 20 21 22 23 25 27 28 28 30 31 31 32 34 35 36 37 38 39 40 42 43 43 42 42 42 42 43 43 43 43 42 42 41 40 40 41 41 42 43 44 44 46 47 46 46 46 47 49 52 52 52 53 52 51 49 48 47 49 51 53 54 56
12 11 11 9 7 7 8 9 10 10 9 8 7 8 9 11 14 16 16 17 17 17 18 19 19 19 21 22 23 24 25 27 28 29 30 31 32 33 34 35 36 37 38 39 41 42 44 44 42 41 40 41 41 40 39 39 39 38 38 38 40 41 41 43 45 46 47 49 50 49 49 48 47 49 52 54 55 56 55 52 49 48 49 50 52 53 54 55
12 11 11 9 8 8 9 10 10 9 8 9 9 10 10 13 16 17 18 18 18 18 19 20 21 21 23 24 24 25 25 27 29 30 31 32 33 33 34 35 36 37 38 40 41 41 43 44 43 40 39 39 39 38 38 38 38 38 39 39 40 41 42 44 45 47 48 51 53 53 52 51 50 50 51 54 56 57 56 53 51 51 51 52 54 55 55 56
11 11 10 10 10 9 8 9 9 8 8 10 11 11 12 14 17 18 18 18 19 20 20 22 23 23 24 25 25 26 26 27 28 30 31 32 33 34 34 35 36 37 38 39 40 40 41 42 42 39 38 38 38 38 39 40 40 41 41 42 42 42 43 46 47 47 48 50 52 53 53 52 51 50 51 54 56 57 55 54 53 53 54 56 57 57 57 58
10 10 9 8 8 6 6 7 7 7 7 8 9 11 13 15 17 19 19 19 20 21 22 23 24 24 25 25 26 26 27 27 28 30 31 32 33 34 35 35 36 37 37 38 38 39 39 40 40 39 38 39 39 41 42 42 43 43 44 45 45 45 47 49 50 50 51 51 51 52 54 52 49 50 54 56 56 56 55 54 54 54 56 58 58 58 59 60
8 8 9 9 9 9 9 9 9 9 9 8 9 11 14 16 18 19 20 20 21 22 23 24 24 25 26 26 26 27 27 27 28 30 31 31 32 34 34 36 36 37 37 38 38 39 40 41 41 40 40 40 41 43 44 45 45 45 46 46 46 47 47 49 51 51 52 53 52 53 56 55 51 53 56 58 58 58 56 54 54 55 57 58 57 57 59 60
7 7 8 10 10 10 10 9 9 10 10 10 11 13 15 17 18 20 21 21 22 23 23 24 24 25 25 26 27 28 28 28 28 29 30 31 32 34 35 36 37 38 39 39 39 40 41 43 44 43 43 43 43 45 46 46 46 46 47 47 46 46 46 47 49 50 53 53 52 54 55 54 54 57 58 58 58 57 55 54 55 57 58 58 58 59 60 62
9 8 8 9 10 10 10 10 10 10 11 12 13 15 17 18 19 20 21 21 22 22 23 23 24 24 25 26 28 29 29 29 28 29 31 33 34 35 37 37 38 39 40 41 41 42 43 45 47 48 48 47 46 46 47 48 47 47 48 49 49 47 46 47 48 51 54 55 54 55 54 52 53 56 55 55 55 54 54 55 56 57 57 57 58 61 63 64
9 9 8 9 10 10 10 10 10 11 12 14 15 16 18 18 19 20 20 21 21 22 22 23 24 25 26 27 28 29 30 31 31 32 33 34 35 37 38 39 39 41 42 43 44 45 45 45 46 48 49 48 47 47 48 49 49 48 48 50 50 49 48 49 50 52 55 56 55 55 55 54 53 53 54 54 53 53 55 55 55 55 56 57 60 63 65 67
8 9 9 9 10 10 11 12 12 13 14 15 16 17 17 18 18 19 20 21 21 22 23 24 25 26 27 28 28 28 29 31 32 34 35 36 37 39 40 41 42 43 44 45 45 46 45 44 44 45 46 47 47 46 47 50 51 50 49 50 51 50 49 50 51 53 54 55 54 53 54 54 53 53 56 56 54 55 56 56 56 57 58 60 64 66 69 72
8 8 9 10 10 11 12 13 13 14 15 16 16 16 17 17 18 20 21 22 23 24 26 26 27 27 28 28 28 28 29 30 31 34 36 38 40 41 41 43 44 44 44 44 44 45 45 44 43 44 45 45 46 47 47 49 51 51 50 50 51 51 50 50 51 52 53 54 53 51 52 53 52 54 56 54 54 55 56 57 59 60 62 65 68 71 73 76
8 9 10 11 12 12 13 13 14 14 15 16 16 16 17 18 20 21 22 23 25 25 26 26 27 27 28 28 28 29 30 31 33 36 38 40 41 41 42 42 42 42 42 43 44 45 45 45 44 45 45 44 46 47 48 49 50 50 50 50 51 51 51 50 51 51 52 53 53 51 51 52 52 53 53 53 55 57 58 59 61 64 67 70 72 75 77 79
9 10 11 12 12 13 13 13 14 15 15 16 17 18 19 21 22 23 23 24 25 26 25 26 26 27 28 29 30 31 34 36 37 38 39 40 40 40 40 40 40 41 42 43 44 44 45 45 45 46 46 44 45 47 47 49 50 49 49 50 50 50 50 51 51 51 52 52 52 51 50 49 51 53 53 54 56 58 60 63 65 68 71 73 75 78 80 82
9 10 11 11 12 12 13 14 15 16 17 18 19 20 21 22 23 23 23 24 24 24 25 25 26 28 29 31 32 34 36 37 37 38 38 38 39 40 40 40 41 42 42 43 44 45 46 46 46 48 47 46 46 47 47 48 50 49 48 49 49 49 50 50 50 50 51 51 50 49 49 48 50 53 54 56 58 60 64 67 69 73 75 77 78 81 82 83
10 11 11 12 12 13 15 16 17 18 19 20 20 21 22 22 22 23 23 23 23 24 25 26 27 28 29 30 32 33 33 34 35 36 37 38 39 40 41 42 43 43 43 44 45 45 47 47 47 49 49 48 48 49 49 49 51 51 49 48 49 50 50 49 49 49 50 50 49 49 49 50 52 54 56 59 62 65 68 72 75 77 77 79 82 83 82 80
11 11 12 13 14 16 17 18 19 20 20 20 20 20 21 21 21 21 22 22 23 23 24 25 25 26 27 28 29 30 32 33 34 35 37 38 40 41 42 43 44 44 44 45 45 46 47 48 49 50 50 49 49 51 51 51 51 51 49 48 49 50 50 50 49 49 50 50 50 50 51 54 56 58 61 63 67 70 73 77 80 80 80 81 83 82 77 71
Wind_Direction
230 234 238 241 244 247 252 257 259 257 252 252 254 266 300 325 246 217 198 183 182 182 181 184 182 175 172 169 163 162 157 147 135 135 155 185 186 202 216 216 219 301 322 326 326 328 330 332 334 332 329 325 326 330 330 328 323 318 314 311 308 302 300 298 295 292 290 292 294 294 294 293 294 294 292 291 291 292 293 294 294 293 292 293 295 296 295 295
231 235 238 242 244 245 248 253 258 260 257 253 250 252 268 288 272 234 220 204 197 198 200 203 204 204 208 216 220 211 198 191 204 231 245 247 236 229 230 238 262 290 304 307 310 314 318 323 326 324 323 326 330 331 329 326 320 316 311 307 306 303 301 299 297 296 294 295 297 297 296 295 294 294 293 292 292 292 294 296 295 294 295 295 295 295 296 296
232 235 238 241 243 245 247 249 253 258 259 256 252 251 255 270 273 250 233 220 209 205 210 217 220 222 227 238 257 261 261 264 280 288 283 270 256 245 246 258 276 287 296 299 300 304 307 313 316 317 320 326 327 325 323 320 316 312 309 306 304 304 303 302 301 300 299 298 298 298 298 297 296 295 294 293 294 293 294 296 296 296 297 295 295 296 297 298
234 237 239 241 243 246 247 249 252 254 257 257 253 252 253 259 268 260 241 230 220 213 215 220 227 232 235 244 262 276 279 285 295 294 287 279 270 263 262 268 277 286 291 293 296 299 302 307 311 314 318 321 321 319 316 314 311 308 305 305 304 304 303 303 303 302 301 300 300 300 299 298 297 296 295 295 296 296 297 297 296 295 295 294 294 295 298 300
235 238 240 243 245 248 249 251 253 255 257 257 254 250 251 254 261 263 247 234 226 221 220 223 230 236 238 242 253 271 282 286 292 291 287 284 281 280 276 275 281 287 290 292 295 297 299 304 307 311 314 315 314 313 311 309 307 305 304 305 305 305 305 305 305 304 304 303 302 302 301 300 300 298 298 298 298 298 299 299 297 296 295 294 295 296 300 302
236 238 240 242 245 248 251 253 254 256 258 259 257 250 250 253 256 262 253 238 230 225 224 227 232 238 241 242 247 262 277 281 283 286 286 284 282 281 277 276 282 287 290 292 294 295 296 300 303 306 307 306 306 307 307 306 305 306 306 307 307 308 308 308 308 307 306 305 305 305 304 303 303 301 301 300 300 301 302 301 300 298 297 298 299 301 302 303
236 239 240 242 244 247 250 254 256 257 258 260 260 254 251 253 253 260 259 243 233 228 227 229 233 239 243 243 246 256 268 276 280 282 283 281 277 273 271 274 281 286 290 291 292 292 293 295 297 298 299 299 302 304 306 306 306 307 308 308 309 310 310 310 309 309 309 308 307 308 307 306 306 304 302 302 302 303 303 302 301 300 300 301 303 305 305 305
237 239 240 241 242 244 248 252 254 256 257 259 261 259 255 254 253 258 262 248 236 232 230 230 233 238 243 245 248 254 262 272 278 280 279 276 273 270 270 274 281 287 290 290 290 289 290 291 292 293 294 296 300 304 305 307 308 309 310 310 311 311 311 311 310 311 311 309 309 309 308 307 306 304 304 303 302 304 304 304 303 302 303 304 306 307 307 306
237 239 240 242 242 243 245 248 252 254 255 257 259 261 258 254 253 256 261 251 238 234 232 231 232 236 242 245 248 252 258 267 274 276 275 272 270 269 270 276 282 287 289 290 290 289 289 288 289 290 292 296 300 303 305 306 308 309 309 310 311 311 311 311 311 312 311 309 309 309 308 307 306 305 304 303 303 304 305 305 304 304 305 307 308 308 308 308
237 238 240 242 243 243 244 246 249 251 253 255 257 260 257 253 251 254 259 251 239 235 234 232 233 236 241 246 248 251 255 262 269 272 273 272 271 270 272 276 282 287 290 290 290 290 288 287 288 290 293 297 299 302 303 305 307 308 309 309 309 310 310 310 310 310 309 308 309 309 308 307 306 305 304 302 302 304 306 306 305 305 307 309 309 309 308 308
238 239 240 241 242 243 244 245 247 249 250 252 254 254 253 252 250 252 255 248 240 237 236 234 234 237 241 245 248 250 254 259 266 270 272 274 274 273 273 276 281 287 291 292 291 289 287 286 288 291 294 297 299 301 303 304 306 307 307 308 309 309 310 310 310 310 310 309 309 309 308 307 305 305 304 302 302 305 307 306 306 307 309 310 310 309 309 308
239 239 238 238 240 241 243 244 244 245 247 249 250 248 251 252 247 248 251 245 240 238 237 236 235 237 240 245 249 251 255 259 264 270 274 277 277 276 275 277 283 288 292 292 291 289 288 288 290 292 294 297 299 301 303 304 306 306 306 307 307 308 309 310 309 309 310 309 309 308 308 307 305 305 304 303 303 306 308 307 307 309 310 311 310 309 309 307
239 237 236 238 240 240 240 240 241 241 243 245 244 244 249 250 245 246 247 243 239 238 238 238 237 238 240 244 249 252 256 259 262 267 272 277 279 278 277 279 284 289 292 292 291 290 290 291 292 293 295 298 300 302 304 304 304 305 306 307 307 307 308 308 308 309 309 309 309 309 308 308 306 304 304 303 304 307 308 308 309 310 311 311 310 309 308 307
239 236 235 239 241 240 238 238 239 240 241 240 240 241 246 247 244 244 244 241 238 237 239 241 239 239 241 244 248 252 255 258 261 264 268 274 277 277 278 280 284 289 290 290 291 291 291 292 293 295 297 299 301 303 304 304 304 305 307 307 307 307 308 308 309 309 309 309 310 309 308 308 307 305 304 304 306 309 310 310 310 312 312 311 310 309 307 306
241 240 240 239 238 239 238 239 239 239 238 236 236 238 241 242 242 242 240 238 238 238 241 243 242 241 241 243 247 251 254 257 260 264 267 271 275 277 279 282 285 288 289 289 288 289 290 292 294 296 298 300 302 302 303 303 303 304 305 305 305 306 307 308 308 310 310 309 309 308 308 308 307 306 305 306 308 310 311 311 311 312 312 311 309 307 306 305
245 247 247 241 237 240 240 239 238 236 234 233 234 235 237 238 238 238 237 237 238 239 243 245 245 242 241 242 246 250 253 257 261 264 266 269 273 278 281 284 286 287 287 287 287 288 289 291 293 296 298 300 300 301 301 302 302 302 303 304 305 306 308 308 308 309 310 309 309 308 308 308 307 307 307 308 310 311 311 310 310 311 311 310 308 306 305 304
246 245 245 238 235 241 242 238 235 234 233 233 233 234 235 236 235 235 237 238 238 240 244 247 246 244 243 243 245 249 252 257 261 264 266 269 273 277 280 282 283 284 284 284 285 286 289 292 294 295 297 299 300 301 301 302 303 304 305 306 307 308 309 309 308 309 309 308 308 307 307 308 308 309 309 311 311 311 310 309 310 311 310 309 307 305 304 303
247 241 238 233 231 234 239 239 237 236 236 236 235 235 237 236 233 234 238 239 239 242 246 248 249 247 246 246 247 249 253 258 262 264 266 268 271 274 276 278 279 279 280 281 284 287 289 292 294 295 296 296 298 299 301 302 303 304 305 306 307 308 309 309 309 310 309 309 308 308 308 309 310 310 311 312 312 311 310 310 310 311 310 308 306 304 304 303
239 232 226 223 222 226 233 237 238 240 240 239 238 239 240 238 234 235 240 241 242 245 248 251 251 250 249 249 249 251 254 258 262 263 264 267 269 272 274 275 275 277 278 279 281 285 289 291 294 296 296 297 298 298 300 301 302 303 304 306 307 308 308 308 308 309 309 308 308 308 308 309 310 310 311 312 311 310 310 310 310 310 308 307 305 304 304 305
172 173 196 206 214 224 233 239 243 245 245 243 243 245 246 242 237 239 243 244 246 248 252 254 254 253 252 251 251 252 255 258 261 263 265 267 269 271 273 274 275 277 280 282 282 285 288 292 296 297 298 299 301 301 301 301 302 303 304 305 307 307 308 307 308 309 308 308 308 307 308 310 310 310 311 311 311 310 310 309 309 308 307 306 304 304 305 306
127 130 166 199 222 238 246 252 255 254 252 251 251 254 253 247 242 243 246 248 249 250 253 256 256 255 253 252 253 254 256 259 261 263 266 268 270 271 273 275 277 277 280 283 286 287 290 294 297 298 298 300 301 302 302 302 303 303 304 305 307 307 307 307 308 308 308 308 308 308 308 310 310 310 311 311 310 309 308 308 308 308 307 306 305 305 306 306
341 341 259 264 267 267 266 268 268 264 260 258 258 259 256 251 249 250 252 253 253 252 254 257 258 258 256 255 255 256 258 260 263 266 267 270 272 272 273 275 277 279 282 284 287 290 292 295 297 297 298 300 302 303 304 303 304 304 304 305 307 307 306 307 308 308 308 308 308 308 309 310 311 311 310 310 310 309 309 309 309 309 307 306 306 306 306 307
295 287 283 280 279 279 279 280 280 276 270 265 263 261 258 256 255 256 257 257 256 254 255 257 260 261 260 259 258 259 261 262 264 267 269 271 273 274 276 277 278 281 285 287 289 291 294 297 298 298 299 301 303 305 305 304 304 304 304 306 307 307 306 308 308 308 309 309 308 309 309 310 310 310 310 311 311 310 309 310 309 308 306 306 306 306 307 310
280 280 281 281 281 281 281 280 279 279 279 275 272 269 265 262 259 258 257 256 254 253 254 255 258 261 262 262 262 263 264 265 266 268 271 273 275 277 279 280 282 284 287 290 291 292 295 298 299 299 300 302 304 305 305 304 304 304 305 306 307 306 307 308 307 308 308 308 308 309 309 310 311 311 312 312 311 309 308 309 308 307 306 306 306 307 310 312
287 285 284 285 285 285 284 282 280 278 277 274 273 273 274 272 267 261 257 254 252 251 252 254 257 261 263 264 265 266 267 269 270 272 274 276 278 280 281 283 285 287 290 291 292 293 295 297 298 299 301 303 304 305 305 305 305 305 306 307 306 307 307 307 307 307 307 307 308 309 309 310 312 313 313 311 309 308 308 308 308 307 306 306 307 309 312 311
339 318 306 299 294 291 289 286 283 281 278 275 273 274 276 278 276 269 262 258 254 252 253 255 259 261 263 266 268 269 271 272 274 276 277 278 281 282 284 286 288 290 292 293 292 293 295 297 298 299 301 302 304 305 305 305 305 306 306 306 306 307 307 307 307 307 307 308 309 309 309 310 312 313 312 310 308 307 308 309 309 309 307 306 308 311 311 309
346 334 323 314 306 301 295 290 287 284 280 278 277 277 277 278 278 276 271 265 260 256 254 255 259 261 264 268 270 271 273 274 276 279 280 281 283 284 286 288 289 291 293 293 293 295 297 298 299 300 302 303 303 304 305 306 306 306 306 306 306 306 306 306 306 306 306 307 309 309 308 309 311 312 312 311 308 308 310 311 310 309 307 308 309 309 308 307
330 323 316 310 303 299 295 291 289 285 282 280 278 277 278 278 278 278 279 274 269 265 258 255 257 261 264 269 273 274 275 277 278 280 281 282 285 286 288 290 291 292 293 293 293 295 297 299 300 301 303 303 304 305 305 305 305 305 305 305 305 305 306 306 305 306 306 307 308 308 307 308 312 315 314 311 309 311 313 312 310 309 309 310 309 308 308 308
319 314 309 303 297 294 291 289 289 287 283 281 279 277 275 274 276 278 279 278 276 273 267 260 260 263 267 271 275 277 279 280 282 282 283 285 287 288 289 290 291 293 295 295 296 297 299 300 302 303 303 304 305 305 305 305 305 305 305 305 305 305 305 305 305 306 306 306 307 306 307 310 315 318 316 312 312 314 314 311 309 310 311 310 309 309 309 309
314 310 306 302 297 294 291 291 291 289 285 280 278 277 273 270 271 273 275 275 275 275 273 270 268 269 272 274 277 279 281 283 284 285 287 288 290 291 292 293 293 295 296 297 298 299 300 301 302 303 303 304 305 305 305 304 304 304 304 305 305 305 305 305 305 305 305 306 307 309 311 315 319 319 315 314 315 314 312 310 310 311 312 311 309 309 309 308
311 308 305 302 298 293 290 290 290 289 287 284 281 280 278 275 270 267 269 273 275 277 277 277 276 276 277 278 280 281 282 284 286 288 290 292 292 293 294 295 295 295 296 297 298 299 301 302 302 303 304 304 305 304 303 303 304 304 305 305 305 305 305 304 305 305 307 308 310 312 314 317 320 316 311 313 313 310 308 307 308 310 310 309 308 308 308 307
310 306 303 299 296 292 288 286 287 286 286 285 286 288 289 287 278 270 268 271 274 276 276 278 280 281 282 284 285 285 285 286 288 291 293 294 295 295 296 297 296 296 298 299 300 301 302 303 303 303 304 304 303 303 303 303 304 305 306 306 305 305 305 305 306 307 309 311 312 314 315 317 317 312 310 311 309 307 306 306 307 307 306 305 306 307 307 307
308 304 299 296 294 292 286 281 280 280 283 285 287 289 292 298 296 288 280 276 276 277 278 280 283 285 286 286 288 288 288 289 292 293 294 296 296 297 298 298 299 300 301 302 302 303 304 304 304 304 304 305 305 305 305 305 305 306 307 306 306 307 306 306 308 309 311 312 312 314 315 315 314 310 310 310 308 307 307 306 306 304 303 305 306 307 307 307
306 303 299 296 295 292 283 275 273 275 280 284 286 286 293 303 308 308 305 297 292 291 289 288 288 287 286 287 290 291 290 292 294 295 296 297 298 299 299 300 300 301 302 303 303 304 304 304 304 305 306 306 306 306 307 307 307 308 308 308 308 308 308 308 310 311 312 312 312 314 314 313 312 310 309 309 307 307 307 306 305 304 306 308 308 307 305 304
306 305 303 301 300 295 284 271 271 276 276 272 277 292 303 309 312 313 313 309 305 303 300 298 297 294 292 293 294 295 294 295 296 297 298 299 300 300 301 301 302 302 303 303 303 304 305 305 306 307 308 308 308 308 308 309 309 308 308 308 308 308 308 310 311 312 313 311 311 313 313 311 311 309 309 309 308 308 307 305 305 306 308 308 306 304 302 302
308 310 311 308 302 296 285 273 274 280 273 254 269 306 316 321 324 322 319 314 310 308 305 304 304 302 299 298 298 298 297 298 299 299 300 300 300 301 301 302 303 303 304 304 304 304 304 306 307 309 309 309 309 309 310 309 309 309 309 310 310 310 311 312 312 312 312 311 310 312 313 314 314 312 311 310 309 308 306 305 307 310 310 308 305 303 302 302
315 320 321 317 306 292 283 275 276 278 261 243 263 296 315 327 332 330 326 320 315 312 309 307 306 304 302 301 300 300 300 300 300 300 300 301 301 301 302 303 304 304 305 306 306 306 306 307 309 310 310 310 309 310 310 310 310 311 312 313 313 313 314 313 312 312 312 310 310 312 313 314 314 312 311 310 308 307 307 309 312 312 310 306 302 301 301 300
332 332 329 325 310 290 282 279 280 272 250 242 263 283 304 322 329 330 326 322 318 315 312 310 308 307 305 304 303 302 302 302 302 302 302 303 303 304 305 306 306 307 308 308 309 309 308 308 310 312 312 311 311 312 312 311 312 313 313 314 314 313 314 312 312 313 312 310 310 311 311 311 311 311 311 309 308 308 310 313 314 312 307 302 300 299 299 299
344 339 335 329 314 296 286 287 294 286 259 249 261 275 294 312 321 324 322 320 318 315 313 311 310 309 307 306 305 304 304 304 305 305 306 306 307 307 308 309 310 310 311 311 311 312 311 311 312 314 314 313 314 314 313 313 312 313 313 313 312 312 312 311 311 312 311 310 310 311 312 312 312 314 311 308 308 310 312 313 312 309 305 301 301 302 302 301
345 343 341 330 319 309 300 303 313 310 288 272 270 278 292 308 316 318 318 318 317 315 313 311 310 309 308 307 307 307 308 308 308 308 308 309 310 310 311 312 313 314 314 314 314 314 314 314 315 316 316 315 315 314 314 313 313 313 313 312 311 311 310 309 309 309 309 309 309 311 311 311 313 312 307 304 307 310 310 311 309 306 304 303 304 305 304 303
354 359 1 352 344 351 358 354 349 341 326 309 296 295 301 308 313 314 315 316 315 314 313 311 311 311 310 310 310 310 311 312 312 311 311 312 313 314 315 315 316 317 316 316 317 317 316 315 316 318 317 316 316 315 314 314 314 313 312 311 312 312 312 312 311 311 310 308 309 310 308 310 312 307 303 305 308 308 308 309 308 305 304 305 306 306 305 304
9 22 29 21 16 23 28 19 6 358 350 338 323 312 308 308 310 311 313 315 314 314 313 312 312 312 313 313 313 313 314 316 316 314 315 317 317 318 319 318 319 319 318 319 319 318 317 316 316 317 316 315 315 314 313 312 312 311 311 312 313 313 314 312 311 311 310 309 310 309 308 312 312 306 305 308 309 309 311 311 308 307 306 306 306 306 305 304
30 38 30 19 14 14 14 7 355 347 339 328 319 312 308 309 310 312 313 314 314 314 313 314 315 316 317 317 317 317 318 319 320 319 319 321 321 321 321 321 321 321 320 320 320 319 318 317 317 316 315 315 315 313 312 312 312 313 313 313 313 313 312 310 310 309 308 308 309 307 309 312 309 307 309 310 309 311 311 309 307 306 307 307 307 306 304 304
43 34 20 12 5 359 356 350 340 331 323 318 314 311 310 311 312 313 314 314 315 316 316 318 318 319 320 320 320 321 320 321 322 322 323 323 324 323 322 322 322 322 321 320 320 320 319 318 318 317 316 316 316 315 314 314 314 315 314 313 313 313 312 310 309 307 307 308 308 307 309 309 306 307 308 307 307 308 307 305 306 306 307 307 305 303 303 304
36 24 13 5 358 350 343 338 330 323 319 316 314 313 313 314 315 316 317 318 320 320 320 322 322 322 323 323 324 324 323 323 324 324 324 324 324 323 322 322 322 321 321 320 319 318 317 317 317 316 316 317 317 317 315 314 314 315 314 312 312 312 312 311 309 307 307 308 308 309 309 308 307 308 306 306 307 306 305 306 306 306 306 305 303 303 304 306
22 10 359 351 347 340 332 330 326 323 321 318 318 318 318 320 322 323 323 324 325 324 324 324 324 324 325 325 325 324 324 323 323 323 324 323 323 322 321 321 321 320 319 319 318 317 317 317 317 316 315 316 316 316 314 313 313 313 312 312 311 312 311 310 308 307 307 307 308 309 308 307 308 307 305 306 307 306 306 307 306 306 306 305 305 306 307 308
3 354 346 339 337 334 330 329 327 325 324 323 323 324 325 327 329 328 327 326 326 325 324 324 324 324 324 324 322 321 320 321 321 321 322 322 321 321 320 320 320 319 319 319 318 317 317 318 317 315 315 315 315 314 312 312 312 313 313 312 312 312 311 310 308 307 307 307 308 308 307 308 308 306 306 307 307 307 308 308 308 308 308 307 308 309 310 311
348 343 340 337 337 335 332 330 329 329 329 329 329 330 329 328 329 328 325 323 323 324 323 323 323 323 322 321 320 319 320 320 320 321 321 321 321 320 320 320 320 320 320 319 319 318 318 318 317 315 315 316 314 313 313 312 312 313 313 312 312 312 311 309 308 308 307 307 308 308 308 309 309 307 308 309 309 309 310 310 310 310 309 309 309 311 312 312
343 341 339 338 337 336 334 335 335 335 334 332 331 328 326 325 325 324 323 322 323 324 324 324 324 324 323 322 321 321 321 321 321 322 322 323 323 322 323 323 322 322 322 321 320 319 319 319 318 316 317 317 315 314 314 313 312 313 312 311 312 311 310 308 308 308 308 308 309 310 311 312 311 310 310 310 310 311 311 311 310 309 309 309 311 313 314 315
343 342 340 340 339 338 339 339 336 333 331 328 327 324 323 323 324 324 325 326 327 328 327 328 327 326 325 324 323 323 324 324 326 327 327 327 327 326 326 326 325 325 324 323 322 321 320 320 319 318 318 318 316 315 314 313 312 312 312 313 313 311 310 309 310 310 310 311 312 313 314 313 311 310 310 311 311 311 311 310 310 310 310 312 314 315 316 316
342 342 341 340 339 337 336 333 329 327 326 324 324 324 324 326 327 329 330 330 330 330 330 330 329 328 328 328 328 329 330 331 332 332 332 332 332 331 330 330 328 328 327 325 324 323 321 321 320 318 319 319 318 316 316 315 314 315 316 316 314 312 311 312 313 313 313 314 315 315 315 313 311 311 312 312 313 312 312 312 312 312 313 316 317 316 316 316
341 340 336 334 334 332 330 328 325 324 325 325 327 329 331 333 335 336 337 336 337 338 337 337 337 336 336 337 337 337 338 338 338 338 337 337 336 335 333 332 331 329 328 327 325 323 322 321 320 320 320 320 319 318 318 317 316 317 318 318 316 314 314 315 316 316 315 315 316 316 315 314 313 314 314 314 314 314 314 315 315 315 316 317 317 316 315 315
Height
5817 5818 5819 5820 5820 5821 5821 5821 5822 5822 5823 5823 5824 5824 5825 5825 5825 5825 5825 5825 5826 5826 5826 5827 5827 5827 5827 5828 5828 5828 5828 5828 5829 5829 5829 5829 5828 5828 5828 5828 5828 5828 5828 5828 5827 5827 5827 5826 5826 5826 5825 5825 5824 5823 5822 5822 5821 5820 5820 5819 5819 5818 5817 5817 5816 5815 5815 5814 5813 5812 5811 5811 5810 5808 5807 5806 5804 5803 5802 5801 5800 5798 5796 5795 5793 5790 5789 5788
5817 5818 5819 5819 5820 5821 5821 5821 5822 5822 5823 5823 5824 5824 5825 5826 5826 5826 5826 5826 5826 5826 5826 5827 5827 5827 5827 5828 5828 5828 5828 5829 5829 5829 5829 5829 5829 5828 5828 5828 5828 5828 5827 5827 5827 5827 5827 5826 5826 5825 5825 5824 5823 5823 5822 5821 5821 5820 5819 5819 5818 5817 5816 5816 5815 5814 5813 5813 5811 5810 5809 5809 5808 5806 5804 5803 5802 5801 5800 5799 5797 5795 5793 5792 5790 5787 5784 5784
5816 5817 5818 5819 5820 5820 5821 5821 5821 5822 5822 5823 5824 5824 5825 5825 5826 5826 5826 5826 5826 5826 5826 5827 5827 5827 5827 5828 5828 5828 5828 5828 5829 5829 5829 5829 5828 5828 5828 5828 5828 5827 5827 5827 5827 5826 5826 5826 5825 5825 5824 5823 5823 5822 5821 5821 5820 5819 5818 5818 5817 5816 5815 5814 5813 5812 5811 5811 5810 5808 5807 5806 5805 5803 5802 5801 5799 5798 5798 5796 5794 5792 5790 5788 5786 5784 5781 5779
5816 5817 5817 5818 5819 5820 5820 5821 5821 5821 5822 5822 5823 5824 5825 5825 5826 5826 5826 5826 5826 5826 5826 5827 5827 5827 5827 5828 5828 5828 5828 5828 5828 5828 5828 5828 5828 5828 5827 5827 5827 5827 5827 5827 5826 5826 5825 5825 5824 5824 5823 5822 5822 5821 5821 5820 5820 5819 5818 5817 5816 5815 5814 5813 5812 5811 5810 5809 5808 5806 5805 5804 5802 5801 5799 5798 5796 5795 5794 5793 5791 5789 5787 5784 5783 5782 5778 5775
5815 5816 5817 5817 5818 5819 5819 5820 5821 5821 5821 5822 5823 5824 5824 5825 5825 5825 5826 5826 5826 5826 5826 5827 5827 5827 5827 5827 5827 5827 5827 5828 5828 5828 5828 5828 5827 5827 5827 5827 5826 5826 5826 5826 5826 5825 5825 5824 5823 5823 5822 5822 5821 5821 5820 5819 5819 5818 5817 5816 5814 5813 5812 5811 5810 5809 5808 5806 5805 5804 5803 5801 5800 5798 5796 5795 5793 5791 5791 5789 5787 5785 5783 5780 5778 5778 5776 5772
5814 5815 5816 5817 5817 5818 5819 5819 5820 5821 5821 5821 5822 5823 5824 5824 5825 5825 5825 5826 5826 5826 5826 5826 5827 5827 5827 5827 5827 5827 5827 5827 5827 5827 5827 5827 5827 5826 5826 5826 5826 5826 5826 5825 5825 5824 5824 5823 5823 5822 5822 5821 5821 5820 5819 5818 5817 5816 5815 5814 5812 5811 5810 5809 5808 5807 5806 5804 5803 5802 5800 5799 5797 5795 5793 5792 5790 5788 5787 5785 5783 5780 5778 5776 5774 5773 5772 5769
5813 5814 5815 5816 5816 5817 5818 5819 5819 5820 5821 5821 5821 5822 5823 5823 5824 5824 5825 5825 5825 5825 5825 5826 5826 5827 5827 5827 5827 5827 5827 5827 5827 5827 5827 5827 5826 5826 5826 5826 5825 5825 5825 5824 5824 5824 5823 5822 5822 5821 5821 5820 5820 5819 5818 5817 5815 5814 5813 5812 5810 5809 5808 5807 5806 5805 5803 5802 5800 5799 5797 5796 5794 5792 5790 5788 5787 5786 5784 5782 5779 5777 5774 5773 5771 5768 5767 5765
5812 5813 5814 5814 5815 5816 5817 5818 5819 5819 5820 5820 5821 5821 5822 5822 5823 5824 5824 5824 5825 5825 5825 5825 5826 5826 5826 5826 5827 5827 5826 5826 5826 5826 5826 5826 5826 5826 5825 5825 5825 5825 5824 5824 5823 5823 5822 5822 5821 5820 5820 5819 5818 5817 5816 5815 5813 5812 5811 5810 5809 5807 5806 5805 5804 5803 5801 5800 5798 5797 5795 5793 5792 5789 5787 5785 5784 5782 5780 5778 5776 5773 5771 5769 5767 5764 5761 5759
5810 5811 5812 5813 5814 5815 5816 5817 5818 5819 5819 5819 5820 5821 5821 5822 5822 5823 5823 5824 5824 5824 5824 5825 5825 5826 5826 5826 5826 5826 5826 5826 5826 5826 5825 5825 5825 5825 5825 5824 5824 5824 5823 5823 5822 5822 5821 5821 5820 5819 5818 5817 5816 5815 5814 5813 5811 5810 5809 5808 5807 5806 5804 5803 5802 5801 5799 5797 5796 5794 5792 5791 5788 5786 5784 5781 5780 5779 5777 5775 5772 5769 5767 5765 5763 5760 5757 5754
5809 5810 5811 5812 5813 5814 5815 5816 5817 5817 5818 5819 5819 5820 5821 5821 5822 5822 5822 5823 5823 5823 5823 5824 5825 5825 5825 5825 5825 5825 5825 5825 5825 5825 5825 5825 5824 5824 5824 5823 5823 5823 5822 5822 5821 5820 5820 5819 5818 5817 5816 5815 5814 5813 5812 5810 5809 5808 5807 5806 5805 5804 5802 5801 5799 5798 5797 5795 5793 5792 5789 5787 5785 5783 5781 5778 5776 5775 5774 5771 5768 5765 5763 5761 5758 5755 5752 5749
5808 5809 5810 5811 5812 5813 5814 5815 5815 5816 5817 5817 5818 5819 5820 5820 5821 5821 5822 5822 5822 5823 5823 5823 5824 5824 5825 5825 5825 5825 5824 5824 5824 5824 5824 5824 5824 5823 5823 5822 5822 5821 5821 5820 5820 5819 5818 5817 5816 5815 5814 5813 5812 5811 5809 5808 5807 5806 5805 5804 5802 5801 5800 5798 5796 5795 5794 5791 5790 5789 5786 5784 5782 5780 5778 5774 5772 5771 5770 5767 5764 5762 5759 5756 5753 5750 5747 5744
5807 5808 5808 5809 5810 5811 5812 5813 5814 5814 5815 5816 5817 5818 5819 5819 5820 5820 5821 5821 5821 5822 5822 5822 5823 5823 5824 5824 5824 5824 5824 5824 5824 5823 5823 5823 5822 5822 5822 5821 5820 5820 5819 5819 5818 5817 5816 5815 5814 5813 5812 5811 5810 5809 5808 5806 5805 5804 5802 5802 5800 5799 5798 5796 5794 5792 5790 5788 5786 5785 5783 5781 5779 5776 5774 5771 5768 5767 5765 5763 5760 5758 5754 5751 5748 5745 5742 5738
5806 5806 5807 5807 5808 5809 5810 5811 5812 5813 5814 5815 5816 5817 5818 5818 5819 5819 5819 5820 5821 5821 5821 5822 5822 5823 5823 5823 5823 5823 5823 5823 5823 5822 5822 5821 5821 5821 5820 5820 5819 5818 5818 5817 5816 5815 5814 5813 5812 5811 5810 5809 5808 5807 5805 5804 5803 5802 5800 5799 5797 5796 5795 5794 5791 5789 5787 5785 5783 5781 5779 5777 5774 5773 5771 5768 5766 5764 5761 5758 5756 5753 5750 5747 5743 5740 5736 5733
5805 5805 5806 5806 5807 5808 5808 5809 5810 5811 5812 5814 5815 5816 5816 5817 5818 5818 5818 5819 5819 5820 5821 5821 5821 5822 5822 5822 5822 5822 5822 5822 5822 5821 5821 5820 5820 5819 5819 5818 5817 5817 5816 5815 5814 5814 5813 5812 5811 5809 5808 5807 5806 5805 5803 5802 5800 5799 5798 5796 5795 5793 5792 5790 5788 5786 5784 5781 5779 5777 5775 5773 5770 5768 5766 5764 5762 5759 5756 5752 5750 5748 5745 5742 5738 5734 5731 5728
5804 5804 5805 5805 5806 5807 5807 5808 5809 5810 5811 5812 5813 5814 5815 5816 5816 5817 5817 5818 5818 5819 5820 5820 5820 5820 5821 5821 5821 5821 5821 5821 5820 5820 5819 5819 5818 5818 5817 5816 5816 5815 5814 5813 5813 5812 5811 5810 5809 5807 5806 5805 5804 5802 5801 5800 5798 5797 5796 5794 5792 5790 5788 5787 5785 5783 5780 5778 5776 5773 5771 5769 5766 5764 5762 5759 5757 5754 5751 5747 5744 5742 5739 5736 5733 5729 5726 5723
5804 5804 5804 5805 5805 5806 5807 5808 5809 5810 5811 5812 5812 5813 5814 5814 5815 5815 5816 5817 5817 5818 5818 5819 5819 5819 5820 5820 5820 5820 5819 5819 5819 5818 5818 5817 5817 5816 5815 5815 5814 5813 5813 5812 5811 5810 5809 5808 5807 5806 5804 5803 5802 5800 5799 5797 5795 5794 5793 5791 5789 5787 5785 5783 5781 5779 5777 5774 5772 5770 5767 5765 5762 5759 5757 5755 5753 5750 5746 5743 5739 5738 5735 5731 5728 5724 5721 5718
5803 5803 5803 5804 5805 5806 5807 5807 5808 5809 5810 5811 5811 5812 5812 5813 5814 5814 5815 5816 5816 5816 5817 5818 5818 5818 5818 5818 5819 5818 5818 5818 5817 5817 5816 5816 5815 5814 5813 5813 5812 5811 5811 5810 5809 5808 5807 5806 5805 5804 5802 5801 5799 5798 5796 5795 5792 5790 5789 5787 5786 5783 5781 5779 5777 5776 5773 5770 5768 5765 5764 5762 5758 5754 5752 5749 5747 5744 5741 5738 5735 5732 5729 5726 5723 5719 5716 5713
5802 5802 5803 5804 5805 5805 5806 5807 5808 5809 5809 5810 5811 5811 5812 5812 5813 5813 5814 5815 5815 5815 5816 5816 5817 5817 5817 5817 5817 5817 5816 5816 5816 5815 5814 5814 5813 5812 5811 5811 5810 5810 5809 5808 5807 5806 5805 5804 5803 5801 5800 5799 5797 5795 5793 5792 5790 5788 5786 5784 5782 5780 5778 5775 5773 5771 5768 5766 5764 5760 5759 5757 5754 5750 5747 5744 5741 5738 5735 5732 5730 5727 5724 5721 5718 5714 5711 5708
5802 5802 5802 5803 5804 5805 5806 5807 5807 5808 5809 5809 5810 5811 5811 5811 5812 5813 5813 5814 5814 5814 5815 5815 5815 5816 5816 5815 5815 5815 5815 5814 5814 5813 5813 5812 5811 5810 5810 5809 5808 5808 5807 5806 5806 5804 5803 5802 5801 5799 5797 5796 5795 5793 5791 5789 5787 5785 5783 5781 5779 5777 5775 5771 5769 5767 5764 5761 5759 5756 5753 5752 5749 5745 5742 5739 5736 5733 5730 5727 5724 5722 5719 5716 5712 5709 5706 5703
5802 5802 5802 5803 5804 5805 5806 5806 5807 5808 5808 5809 5809 5810 5810 5811 5811 5812 5812 5813 5813 5813 5814 5814 5814 5814 5814 5814 5813 5813 5813 5812 5812 5811 5811 5810 5809 5809 5808 5807 5806 5806 5805 5804 5803 5802 5801 5800 5799 5797 5794 5793 5791 5790 5788 5786 5784 5781 5779 5777 5775 5773 5771 5768 5765 5763 5760 5757 5755 5751 5749 5747 5744 5740 5737 5734 5731 5727 5724 5722 5720 5717 5714 5711 5707 5704 5701 5698
5802 5802 5803 5803 5804 5805 5805 5806 5807 5807 5808 5808 5809 5809 5809 5810 5810 5811 5811 5811 5811 5812 5812 5812 5812 5812 5812 5812 5811 5811 5811 5810 5810 5809 5809 5808 5808 5807 5806 5805 5804 5804 5803 5802 5800 5800 5799 5798 5796 5794 5792 5790 5789 5787 5785 5783 5780 5778 5775 5773 5771 5768 5766 5763 5761 5758 5755 5752 5750 5747 5744 5742 5738 5735 5732 5729 5726 5723 5720 5717 5714 5712 5709 5705 5702 5699 5696 5693
5803 5803 5803 5804 5804 5805 5805 5806 5806 5806 5807 5807 5807 5808 5808 5809 5809 5809 5809 5810 5810 5810 5810 5811 5811 5811 5810 5810 5810 5809 5809 5809 5808 5807 5807 5806 5806 5805 5804 5803 5802 5801 5801 5800 5798 5797 5796 5795 5794 5791 5789 5788 5786 5784 5782 5779 5777 5774 5772 5769 5767 5764 5761 5758 5756 5753 5750 5747 5744 5741 5739 5736 5733 5729 5727 5724 5721 5717 5714 5712 5709 5706 5703 5700 5697 5694 5691 5689
5804 5804 5804 5805 5805 5805 5805 5805 5806 5806 5806 5806 5806 5807 5807 5807 5807 5808 5808 5808 5808 5808 5809 5809 5809 5809 5809 5808 5808 5808 5807 5807 5807 5805 5805 5804 5804 5803 5802 5801 5800 5799 5798 5797 5796 5795 5793 5792 5790 5788 5786 5784 5783 5781 5778 5776 5773 5770 5768 5765 5763 5760 5756 5753 5751 5748 5745 5741 5738 5736 5733 5731 5728 5724 5721 5718 5715 5712 5708 5706 5703 5700 5697 5694 5692 5689 5686 5685
5805 5805 5805 5805 5805 5805 5805 5805 5805 5805 5805 5805 5805 5805 5806 5806 5805 5805 5806 5806 5806 5806 5807 5807 5807 5807 5807 5807 5806 5806 5806 5805 5804 5804 5803 5802 5801 5800 5800 5799 5798 5797 5796 5795 5793 5792 5791 5789 5787 5785 5783 5781 5779 5777 5775 5772 5770 5766 5763 5761 5758 5755 5752 5748 5745 5743 5740 5737 5733 5730 5728 5726 5722 5718 5716 5712 5708 5706 5703 5701 5699 5695 5691 5688 5686 5684 5683 5681
5805 5805 5805 5805 5805 5805 5805 5805 5805 5805 5804 5804 5804 5804 5804 5804 5803 5803 5803 5804 5804 5804 5804 5805 5805 5805 5805 5805 5805 5804 5804 5803 5802 5802 5801 5800 5799 5798 5797 5797 5795 5794 5794 5792 5790 5789 5788 5786 5784 5782 5780 5778 5775 5773 5770 5767 5765 5762 5759 5756 5753 5750 5747 5744 5740 5737 5735 5732 5729 5724 5721 5721 5716 5711 5710 5708 5703 5700 5697 5696 5693 5689 5686 5683 5680 5679 5678 5675
5805 5805 5805 5805 5805 5804 5804 5804 5804 5804 5803 5803 5803 5802 5802 5802 5801 5801 5801 5802 5802 5803 5803 5803 5803 5803 5803 5803 5803 5802 5802 5801 5800 5800 5799 5798 5797 5796 5795 5794 5793 5792 5790 5789 5787 5786 5785 5783 5781 5778 5776 5774 5772 5769 5766 5763 5760 5758 5755 5752 5748 5745 5742 5739 5735 5732 5729 5726 5724 5720 5715 5715 5713 5707 5705 5702 5698 5695 5692 5689 5687 5683 5680 5677 5676 5675 5673 5669
5805 5805 5805 5804 5804 5804 5804 5803 5803 5802 5802 5801 5801 5800 5800 5799 5799 5799 5799 5800 5800 5801 5801 5801 5801 5801 5801 5801 5801 5800 5800 5799 5799 5798 5797 5795 5795 5793 5792 5791 5791 5789 5788 5786 5784 5783 5782 5780 5777 5775 5773 5770 5768 5765 5762 5759 5756 5753 5751 5747 5744 5740 5737 5733 5730 5726 5723 5721 5720 5716 5710 5709 5708 5704 5700 5696 5691 5689 5687 5683 5680 5677 5673 5671 5671 5669 5667 5664
5805 5804 5804 5804 5803 5803 5803 5802 5801 5801 5800 5799 5799 5798 5798 5797 5797 5797 5797 5798 5798 5798 5799 5799 5799 5799 5799 5799 5798 5798 5797 5797 5796 5796 5794 5793 5792 5791 5790 5789 5787 5786 5785 5782 5781 5780 5778 5776 5773 5771 5769 5766 5763 5760 5758 5755 5752 5749 5746 5742 5739 5735 5732 5728 5725 5722 5718 5715 5715 5712 5707 5704 5703 5698 5695 5692 5685 5682 5681 5677 5674 5672 5668 5665 5663 5661 5660 5658
5804 5804 5803 5803 5802 5802 5801 5800 5799 5799 5798 5798 5797 5797 5796 5796 5796 5796 5796 5797 5796 5796 5797 5797 5797 5797 5797 5797 5797 5796 5795 5794 5794 5793 5792 5791 5790 5788 5787 5786 5785 5783 5781 5779 5777 5776 5774 5772 5769 5767 5764 5762 5759 5756 5753 5750 5747 5744 5741 5737 5734 5730 5727 5723 5720 5716 5713 5710 5709 5706 5702 5700 5698 5692 5688 5686 5682 5679 5675 5670 5668 5667 5664 5660 5657 5654 5652 5650
5803 5802 5802 5801 5800 5799 5799 5798 5797 5797 5796 5796 5796 5795 5795 5795 5794 5795 5795 5795 5795 5795 5795 5795 5796 5796 5795 5795 5795 5794 5793 5792 5791 5790 5789 5788 5787 5786 5784 5783 5781 5780 5778 5776 5774 5772 5770 5768 5766 5763 5760 5757 5754 5751 5748 5745 5742 5739 5735 5732 5729 5726 5722 5718 5715 5712 5708 5705 5703 5700 5695 5693 5692 5687 5683 5680 5677 5675 5672 5667 5662 5660 5658 5654 5651 5649 5646 5644
5802 5801 5800 5799 5798 5797 5797 5796 5796 5795 5795 5794 5794 5794 5794 5793 5793 5794 5794 5793 5794 5794 5794 5794 5794 5794 5794 5793 5793 5792 5791 5790 5789 5788 5787 5786 5784 5783 5781 5779 5778 5776 5775 5773 5771 5769 5767 5765 5762 5759 5756 5753 5750 5747 5743 5740 5737 5734 5730 5726 5723 5721 5717 5713 5710 5707 5703 5699 5697 5694 5690 5689 5688 5683 5680 5679 5676 5672 5670 5666 5661 5657 5653 5650 5646 5644 5641 5638
5800 5799 5798 5797 5796 5795 5795 5795 5794 5794 5793 5793 5793 5793 5793 5793 5792 5792 5792 5792 5792 5793 5793 5793 5793 5792 5792 5791 5791 5790 5789 5788 5787 5786 5784 5783 5781 5780 5778 5776 5774 5772 5770 5769 5767 5765 5763 5760 5757 5754 5752 5749 5746 5742 5739 5736 5732 5729 5726 5721 5717 5715 5712 5707 5704 5701 5698 5694 5692 5690 5687 5686 5684 5679 5676 5676 5674 5670 5667 5663 5659 5655 5651 5647 5644 5640 5636 5632
5798 5797 5796 5795 5794 5794 5793 5793 5793 5793 5792 5792 5792 5792 5792 5792 5791 5791 5791 5791 5791 5791 5791 5791 5791 5790 5790 5789 5789 5788 5787 5786 5785 5783 5782 5780 5778 5777 5775 5773 5770 5768 5766 5764 5762 5760 5758 5756 5753 5750 5747 5744 5740 5737 5733 5730 5727 5724 5721 5716 5712 5708 5705 5702 5699 5696 5694 5691 5688 5686 5684 5682 5680 5675 5672 5671 5668 5665 5663 5659 5655 5652 5648 5644 5640 5636 5631 5627
5795 5794 5793 5793 5792 5792 5791 5792 5792 5792 5792 5791 5791 5791 5791 5791 5791 5790 5790 5790 5790 5789 5789 5789 5789 5788 5788 5787 5786 5785 5784 5783 5782 5781 5779 5777 5775 5773 5771 5769 5767 5764 5762 5759 5757 5755 5753 5751 5748 5745 5742 5739 5735 5731 5728 5725 5721 5718 5715 5711 5707 5704 5699 5696 5694 5691 5689 5687 5684 5682 5680 5677 5675 5671 5667 5666 5663 5660 5657 5653 5649 5646 5643 5640 5635 5631 5626 5623
5793 5792 5791 5791 5790 5790 5790 5790 5791 5791 5791 5791 5791 5791 5791 5791 5790 5790 5790 5789 5789 5789 5788 5787 5787 5787 5786 5785 5784 5783 5782 5781 5780 5778 5776 5774 5772 5770 5768 5766 5763 5761 5758 5756 5754 5751 5749 5746 5744 5741 5737 5734 5730 5727 5723 5720 5716 5713 5710 5706 5703 5700 5696 5692 5691 5688 5685 5682 5680 5679 5675 5672 5670 5667 5662 5659 5657 5654 5651 5647 5644 5641 5638 5634 5630 5626 5621 5618
5791 5790 5789 5789 5789 5789 5789 5789 5790 5790 5790 5790 5790 5791 5790 5790 5790 5790 5789 5789 5788 5787 5787 5786 5786 5785 5784 5783 5782 5781 5779 5778 5777 5775 5773 5771 5769 5767 5764 5762 5760 5757 5755 5752 5750 5747 5746 5743 5740 5736 5733 5729 5725 5722 5719 5715 5711 5708 5705 5702 5698 5696 5692 5689 5687 5684 5680 5677 5675 5674 5670 5665 5662 5660 5656 5652 5649 5646 5644 5641 5639 5636 5633 5628 5623 5619 5615 5611
5790 5789 5789 5788 5788 5788 5788 5789 5789 5789 5789 5789 5790 5790 5790 5789 5789 5789 5788 5788 5787 5786 5785 5785 5784 5783 5782 5781 5780 5779 5777 5775 5774 5772 5770 5768 5766 5764 5761 5759 5756 5754 5751 5748 5746 5742 5740 5739 5737 5733 5729 5726 5722 5719 5715 5711 5708 5705 5702 5698 5695 5691 5689 5685 5681 5680 5676 5672 5669 5668 5666 5662 5658 5654 5650 5647 5642 5638 5637 5636 5634 5631 5627 5622 5617 5613 5609 5605
5790 5789 5788 5788 5788 5788 5788 5788 5788 5788 5788 5789 5789 5789 5789 5789 5788 5788 5787 5786 5785 5785 5784 5783 5782 5781 5780 5779 5778 5776 5775 5772 5770 5769 5767 5764 5762 5760 5758 5755 5753 5750 5747 5744 5742 5738 5735 5734 5734 5730 5725 5721 5718 5715 5712 5708 5705 5702 5699 5696 5692 5688 5685 5681 5677 5674 5670 5666 5663 5662 5661 5658 5655 5651 5644 5640 5635 5631 5630 5629 5628 5624 5620 5615 5611 5608 5604 5600
5790 5789 5788 5788 5788 5788 5788 5788 5788 5788 5788 5788 5788 5788 5789 5788 5788 5787 5786 5785 5784 5783 5782 5781 5780 5779 5778 5776 5775 5774 5772 5770 5767 5765 5763 5761 5759 5757 5754 5752 5749 5746 5744 5740 5738 5735 5730 5728 5728 5725 5720 5717 5714 5710 5708 5705 5702 5699 5696 5693 5689 5686 5682 5678 5674 5670 5665 5661 5657 5655 5653 5650 5648 5645 5638 5632 5628 5625 5624 5623 5621 5618 5613 5608 5604 5600 5596 5591
5790 5789 5789 5788 5788 5788 5787 5787 5787 5787 5788 5788 5788 5788 5788 5788 5787 5786 5785 5784 5783 5781 5780 5779 5778 5777 5776 5774 5772 5771 5769 5767 5765 5762 5760 5758 5756 5753 5751 5748 5746 5743 5740 5737 5734 5731 5727 5723 5722 5721 5717 5713 5710 5707 5703 5700 5697 5694 5691 5688 5685 5682 5678 5674 5671 5667 5662 5658 5654 5650 5647 5645 5643 5639 5632 5627 5625 5622 5620 5619 5615 5610 5604 5599 5595 5592 5587 5581
5790 5790 5789 5789 5789 5788 5788 5787 5788 5788 5788 5788 5788 5788 5788 5787 5786 5785 5784 5783 5781 5780 5779 5777 5776 5774 5773 5772 5770 5768 5767 5765 5762 5760 5758 5755 5753 5750 5748 5745 5742 5739 5736 5734 5730 5727 5724 5720 5718 5716 5713 5710 5706 5702 5699 5696 5693 5690 5686 5683 5680 5676 5672 5667 5664 5661 5656 5652 5651 5647 5642 5642 5641 5634 5626 5623 5621 5618 5616 5613 5608 5602 5596 5592 5588 5583 5578 5572
5791 5790 5790 5790 5789 5789 5788 5788 5788 5788 5787 5787 5787 5787 5787 5786 5785 5783 5782 5781 5780 5778 5777 5776 5774 5772 5771 5769 5767 5766 5764 5762 5760 5757 5755 5752 5749 5747 5744 5742 5739 5736 5733 5730 5727 5723 5720 5716 5714 5712 5709 5706 5703 5699 5695 5692 5690 5686 5682 5679 5676 5671 5667 5662 5657 5654 5650 5646 5645 5640 5635 5635 5634 5626 5619 5616 5613 5610 5608 5604 5598 5593 5589 5585 5581 5576 5570 5565
5791 5791 5791 5790 5790 5789 5789 5788 5788 5788 5787 5787 5787 5786 5785 5784 5783 5782 5781 5780 5778 5777 5775 5774 5772 5770 5769 5767 5765 5763 5761 5760 5757 5754 5752 5750 5747 5744 5741 5739 5736 5733 5730 5727 5724 5720 5716 5712 5709 5707 5705 5703 5700 5695 5691 5688 5685 5681 5677 5674 5671 5668 5664 5660 5655 5650 5645 5642 5640 5635 5631 5629 5624 5617 5613 5609 5605 5603 5600 5595 5590 5586 5582 5577 5573 5568 5562 5558
5792 5792 5791 5791 5790 5790 5789 5789 5788 5788 5787 5786 5786 5785 5784 5783 5782 5781 5779 5778 5777 5775 5774 5772 5770 5769 5767 5765 5763 5760 5758 5757 5755 5752 5749 5747 5744 5741 5739 5736 5733 5729 5726 5723 5720 5717 5713 5708 5704 5701 5698 5696 5694 5689 5685 5681 5679 5676 5672 5667 5665 5663 5660 5655 5651 5645 5640 5637 5634 5630 5628 5625 5618 5613 5610 5606 5602 5600 5595 5590 5586 5581 5576 5571 5566 5560 5555 5552
5792 5792 5792 5791 5791 5790 5789 5789 5788 5787 5787 5786 5785 5784 5783 5782 5781 5780 5778 5777 5775 5774 5772 5771 5769 5767 5765 5763 5761 5758 5755 5753 5751 5749 5747 5744 5742 5739 5735 5733 5730 5726 5723 5720 5716 5713 5710 5706 5701 5696 5692 5689 5687 5683 5679 5675 5672 5671 5668 5663 5659 5657 5654 5650 5645 5640 5635 5631 5628 5623 5620 5618 5614 5608 5604 5601 5598 5594 5589 5585 5580 5576 5571 5566 5559 5553 5549 5545
5793 5792 5792 5791 5790 5790 5789 5788 5788 5787 5786 5785 5784 5783 5782 5781 5780 5778 5777 5775 5774 5772 5770 5769 5767 5765 5763 5761 5759 5757 5754 5752 5749 5746 5744 5741 5739 5736 5733 5729 5726 5723 5719 5716 5712 5709 5706 5703 5699 5694 5690 5686 5682 5679 5675 5670 5667 5665 5663 5659 5655 5652 5648 5644 5639 5634 5629 5625 5623 5619 5613 5611 5609 5603 5597 5594 5591 5586 5582 5578 5573 5569 5564 5558 5551 5545 5541 5535
5793 5793 5792 5791 5791 5790 5789 5788 5787 5786 5785 5784 5783 5782 5781 5780 5778 5777 5775 5774 5772 5770 5768 5767 5765 5763 5761 5759 5757 5755 5753 5751 5748 5745 5742 5739 5736 5733 5730 5727 5723 5719 5716 5712 5708 5704 5701 5699 5695 5691 5687 5683 5679 5675 5671 5666 5662 5659 5656 5653 5649 5646 5643 5638 5633 5629 5624 5620 5618 5615 5608 5604 5602 5597 5591 5588 5584 5579 5575 5570 5564 5560 5554 5548 5542 5537 5532 5525
5793 5793 5792 5791 5790 5790 5789 5788 5787 5786 5785 5784 5783 5781 5780 5779 5777 5776 5774 5772 5770 5769 5767 5765 5763 5761 5759 5757 5755 5753 5751 5749 5746 5743 5740 5737 5733 5730 5727 5724 5720 5716 5712 5708 5704 5700 5696 5694 5691 5686 5683 5680 5675 5670 5667 5662 5658 5655 5651 5647 5643 5640 5637 5632 5628 5623 5619 5614 5611 5609 5604 5598 5594 5589 5585 5581 5576 5571 5567 5562 5557 5551 5545 5539 5534 5528 5522 5516
5793 5793 5792 5791 5790 5789 5788 5787 5786 5785 5784 5783 5782 5780 5779 5777 5776 5774 5772 5771 5769 5767 5765 5763 5761 5759 5757 5755 5753 5750 5748 5746 5743 5740 5737 5734 5730 5727 5723 5720 5716 5712 5708 5704 5700 5696 5691 5688 5685 5681 5678 5676 5671 5666 5662 5658 5654 5651 5647 5643 5639 5634 5630 5626 5622 5617 5613 5608 5604 5601 5598 5593 5586 5581 5578 5574 5570 5565 5559 5554 5550 5543 5537 5533 5528 5519 5511 5505
5793 5792 5791 5791 5790 5789 5788 5787 5786 5785 5783 5782 5781 5779 5777 5776 5774 5772 5771 5769 5767 5765 5764 5762 5760 5757 5755 5753 5751 5748 5745 5742 5739 5737 5733 5730 5727 5723 5719 5716 5712 5708 5704 5700 5696 5691 5687 5683 5679 5675 5672 5670 5666 5662 5658 5653 5649 5646 5643 5638 5634 5629 5624 5620 5616 5611 5607 5603 5599 5594 5591 5588 5582 5577 5573 5568 5564 5559 5553 5547 5542 5535 5528 5523 5517 5509 5501 5495
5793 5792 5791 5790 5789 5788 5787 5786 5785 5784 5782 5781 5779 5778 5776 5774 5773 5771 5769 5767 5766 5764 5762 5760 5758 5756 5754 5751 5749 5746 5743 5740 5737 5733 5730 5726 5723 5719 5715 5711 5707 5704 5700 5696 5691 5687 5682 5679 5675 5670 5667 5665 5660 5655 5652 5648 5643 5639 5636 5632 5627 5622 5617 5613 5609 5605 5600 5596 5593 5589 5585 5581 5576 5572 5567 5562 5556 5551 5545 5538 5531 5525 5520 5513 5505 5499 5494 5488
5793 5792 5791 5790 5789 5788 5787 5785 5784 5783 5781 5779 5778 5776 5775 5773 5771 5770 5768 5766 5764 5763 5761 5759 5757 5755 5752 5750 5747 5744 5741 5738 5735 5731 5728 5724 5720 5716 5712 5708 5704 5700 5696 5692 5688 5683 5678 5674 5670 5665 5661 5659 5654 5649 5645 5641 5636 5633 5630 5625 5620 5615 5611 5607 5603 5599 5594 5590 5587 5584 5579 5573 5568 5564 5560 5555 5549 5542 5535 5527 5518 5513 5510 5504 5496 5489 5485 5481